Regional Weather Roundup
Issued by NWS Goodland, KS

Home | Current Version | Previous Version | Graphics & Text | Print | Product List | Glossary On
Versions: 1 2 3 4 5 6 7 8 9 10 11 12 13 14 15 16 17 18 19 20 21 22 23 24 25 26 27 28 29 30 31 32 33 34 35 36 37 38 39 40 41 42 43 44 45 46 47 48 49 50
102
ASUS43 KGLD 262359
RWRGLD

GOODLAND FORECAST AREA HOURLY WEATHER ROUNDUP
NATIONAL WEATHER SERVICE GOODLAND KS
500 PM MST SUN FEB 26 2017

...OFFICIAL OBSERVATIONS...

CITY           SKY/WX    TMP DP  RH WIND       PRES   REMARKS
GOODLAND KS    CLEAR     42   7  23 SE12      29.84S
HILL CITY KS   CLEAR     45   8  22 N7        29.93R
IMPERIAL NEB   CLEAR     38  14  37 NE8       29.86F
MCCOOK NEB     CLEAR     40   9  28 N10       29.91R
AKRON CO       CLEAR     40   6  24 S7        29.77F
BURLINGTON CO  CLEAR     44   6  21 S10       29.82S
LIMON CO       CLEAR     39  -2  17 SE13      29.76S
$$

...UNOFFICIAL OBSERVATIONS...

CITY           SKY/WX    TMP DP  RH WIND       PRES   REMARKS
LENORA KS        N/A     43  32  65 N5          N/A
SHARON SPRINGS   N/A     45  11  25 SE9         N/A
TRENTON NEB      N/A     37  32  82 N6          N/A
KIT CARSON CO    N/A     46   7  20 MISG        N/A
YUMA CO        FAIR      37  12  35 SE8       29.79F
$$




USA.gov is the U.S. government's official web portal to all federal, state and local government web resources and services.